Japanese version Home page |
Updated on June 15, 2014 |
|
Orbital ElementsEpoch 2012 Dec. 19.0 TT = JDT 2456280.5 T 2012 Dec. 25.41497 TT MPC q 2.2624047 (2000.0) P Q z +0.0012839 Peri. 140.28998 +0.00726400 -0.05699471 +/-0.0000007 Node 271.76648 +0.45250732 +0.89049234 e 0.9970953 Incl. 87.21953 +0.89173110 -0.45141444 From 1365 observations 2012 June 1-2013 Apr. 13, mean residual 0".5.
|
Finding Charts
|
Magnitudes Graphm1 = 10.0 + 5 log d + 10.0 log r
|
The orbital elements are published on M.P.E.C. 2014-H26.
|